AFR86PV LFPG-LFBZ

Flight info

Callsign AFR86PV
Flight time 1h 11m
Altitude 31000
Route AGOPA DCT ARKIP DCT ARMAL DCT ARTAX DCT BEBIX DCT LMG DCT UVELI DCT OSMOB DCT VAVIX DCT MAGEC
Aircraft E190/M-SDE3GILORVW/S

Departure

Time 2026-04-20 15:38
Airport Charles de Gaulle International Airport (LFPG)

Arrival

Time 2026-04-20 16:50
Airport Biarritz Pays Basque airport (LFBZ)
Time Latitude Longitude Altitude Speed Heading
2026-04-20 15:15 49.00406 2.59855 352 ft 0 kts 266°
2026-04-20 15:29 49.00406 2.59856 352 ft 1 kts 266°
2026-04-20 15:29 49.00410 2.59890 352 ft 4 kts 242°
2026-04-20 15:29 49.00425 2.59915 358 ft 4 kts 191°
2026-04-20 15:29 49.00436 2.59918 358 ft 0 kts 175°
2026-04-20 15:32 49.00419 2.59920 357 ft 4 kts 175°
2026-04-20 15:33 49.00375 2.59925 352 ft 8 kts 175°
2026-04-20 15:33 49.00305 2.59924 354 ft 11 kts 205°
2026-04-20 15:33 49.00282 2.59798 352 ft 14 kts 265°
2026-04-20 15:33 49.00282 2.59629 355 ft 18 kts 283°
2026-04-20 15:34 49.00232 2.59484 352 ft 19 kts 183°
2026-04-20 15:34 49.00090 2.59500 355 ft 22 kts 174°
2026-04-20 15:34 48.99981 2.59392 355 ft 23 kts 265°
2026-04-20 15:34 48.99967 2.59132 353 ft 26 kts 265°
2026-04-20 15:35 48.99951 2.58843 353 ft 29 kts 265°
2026-04-20 15:35 48.99936 2.58523 353 ft 31 kts 267°
2026-04-20 15:35 48.99920 2.58185 353 ft 34 kts 265°
2026-04-20 15:35 48.99899 2.57823 353 ft 35 kts 266°
2026-04-20 15:36 48.99878 2.57447 353 ft 36 kts 266°
2026-04-20 15:36 48.99861 2.57122 357 ft 30 kts 264°
2026-04-20 15:36 48.99845 2.56805 360 ft 30 kts 266°
2026-04-20 15:36 48.99805 2.56624 353 ft 13 kts 210°
2026-04-20 15:37 48.99716 2.56606 353 ft 14 kts 174°
2026-04-20 15:37 48.99647 2.56680 354 ft 13 kts 97°
2026-04-20 15:37 48.99652 2.56788 354 ft 9 kts 84°
2026-04-20 15:37 48.99659 2.56909 358 ft 21 kts 85°
2026-04-20 15:38 48.99689 2.57500 356 ft 90 kts 86°
2026-04-20 15:38 48.99767 2.58755 370 ft 144 kts 85°
2026-04-20 15:38 48.99818 2.60333 1007 ft 151 kts 83°
2026-04-20 15:38 48.99876 2.62024 1512 ft 175 kts 83°
2026-04-20 15:39 49.00005 2.64025 1797 ft 202 kts 81°
2026-04-20 15:39 49.00175 2.66254 2417 ft 219 kts 81°
2026-04-20 15:39 49.00322 2.68618 3279 ft 227 kts 83°
2026-04-20 15:39 49.00433 2.71083 3889 ft 245 kts 84°
2026-04-20 15:40 49.00560 2.73737 4610 ft 253 kts 83°
2026-04-20 15:40 49.00684 2.76423 5460 ft 257 kts 86°
2026-04-20 15:40 49.00598 2.79170 6220 ft 262 kts 92°
2026-04-20 15:40 49.00350 2.81947 6892 ft 269 kts 97°
2026-04-20 15:41 49.00014 2.84774 7505 ft 275 kts 98°
2026-04-20 15:41 48.99677 2.87671 8105 ft 281 kts 97°
2026-04-20 15:41 48.99366 2.90629 8722 ft 286 kts 96°
2026-04-20 15:41 48.99062 2.93651 9347 ft 292 kts 96°
2026-04-20 15:42 48.98692 2.96710 10016 ft 298 kts 105°
2026-04-20 15:42 48.97662 2.99506 10364 ft 317 kts 133°
2026-04-20 15:42 48.95772 3.01382 10569 ft 336 kts 162°
2026-04-20 15:42 48.93455 3.01680 11080 ft 338 kts 191°
2026-04-20 15:43 48.91328 3.00376 11578 ft 338 kts 218°
2026-04-20 15:43 48.89827 2.97740 12157 ft 331 kts 247°
2026-04-20 15:43 48.89219 2.95080 12661 ft 329 kts 259°
2026-04-20 15:43 48.88828 2.91700 13380 ft 326 kts 264°
2026-04-20 15:44 48.88403 2.88319 14084 ft 327 kts 260°
2026-04-20 15:44 48.87802 2.84965 14701 ft 329 kts 257°
2026-04-20 15:44 48.87116 2.81630 15366 ft 329 kts 256°
2026-04-20 15:44 48.86427 2.78278 15962 ft 330 kts 257°
2026-04-20 15:45 48.85795 2.74905 16596 ft 331 kts 258°
2026-04-20 15:45 48.85219 2.71486 17211 ft 333 kts 259°
2026-04-20 15:45 48.84687 2.68049 17801 ft 336 kts 261°
2026-04-20 15:45 48.84195 2.64585 18372 ft 339 kts 261°
2026-04-20 15:46 48.83409 2.61212 18880 ft 349 kts 243°
2026-04-20 15:46 48.82032 2.58169 19518 ft 348 kts 240°
2026-04-20 15:46 48.80652 2.55147 20167 ft 348 kts 240°
2026-04-20 15:46 48.79265 2.52121 20746 ft 350 kts 240°
2026-04-20 15:47 48.77958 2.49324 21216 ft 353 kts 240°
2026-04-20 15:47 48.76540 2.46343 21684 ft 356 kts 240°
2026-04-20 15:47 48.75061 2.43271 22175 ft 358 kts 240°
2026-04-20 15:47 48.73576 2.40309 22716 ft 362 kts 234°
2026-04-20 15:48 48.71594 2.37853 23238 ft 376 kts 219°
2026-04-20 15:48 48.69348 2.35762 23741 ft 377 kts 219°
2026-04-20 15:48 48.67107 2.33675 24133 ft 381 kts 219°
2026-04-20 15:48 48.64825 2.31582 24513 ft 385 kts 218°
2026-04-20 15:49 48.62524 2.29499 24932 ft 387 kts 218°
2026-04-20 15:49 48.60216 2.27424 25410 ft 387 kts 218°
2026-04-20 15:49 48.57883 2.25332 25753 ft 391 kts 218°
2026-04-20 15:49 48.55541 2.23236 26106 ft 394 kts 218°
2026-04-20 15:50 48.53182 2.21125 26452 ft 395 kts 218°
2026-04-20 15:50 48.50823 2.19022 26892 ft 395 kts 218°
2026-04-20 15:50 48.48439 2.16911 27164 ft 400 kts 218°
2026-04-20 15:50 48.46025 2.14795 27462 ft 402 kts 218°
2026-04-20 15:51 48.43597 2.12675 27805 ft 404 kts 218°
2026-04-20 15:51 48.41159 2.10546 28148 ft 406 kts 218°
2026-04-20 15:51 48.38714 2.08408 28496 ft 408 kts 218°
2026-04-20 15:51 48.36259 2.06263 28823 ft 409 kts 218°
2026-04-20 15:52 48.33790 2.04107 29140 ft 411 kts 218°
2026-04-20 15:52 48.31306 2.01978 29585 ft 413 kts 214°
2026-04-20 15:52 48.28527 2.00568 29709 ft 437 kts 196°
2026-04-20 15:53 48.23413 2.00429 30328 ft 446 kts 186°
2026-04-20 15:53 48.20256 2.00553 30410 ft 453 kts 186°
2026-04-20 15:53 48.17105 2.00683 30676 ft 453 kts 186°
2026-04-20 15:53 48.13959 2.00797 31054 ft 450 kts 186°
2026-04-20 15:54 48.10868 2.00902 31156 ft 441 kts 186°
2026-04-20 15:54 48.07826 2.01001 31135 ft 435 kts 186°
2026-04-20 15:54 48.01760 2.01321 31112 ft 437 kts 185°
2026-04-20 15:55 47.95693 2.01688 31110 ft 436 kts 185°
2026-04-20 15:55 47.89620 2.02029 31107 ft 436 kts 185°
2026-04-20 15:56 47.83551 2.02367 31103 ft 437 kts 185°
2026-04-20 15:56 47.77468 2.02709 31099 ft 437 kts 185°
2026-04-20 15:57 47.71395 2.03049 31094 ft 437 kts 185°
2026-04-20 15:57 47.65316 2.03385 31089 ft 438 kts 185°
2026-04-20 15:58 47.59227 2.03740 31079 ft 438 kts 184°
2026-04-20 15:58 47.53146 2.04129 31068 ft 437 kts 184°
2026-04-20 15:59 47.47108 2.04506 31070 ft 437 kts 184°
2026-04-20 15:59 47.41030 2.04884 31072 ft 437 kts 184°
2026-04-20 16:00 47.34967 2.05234 31068 ft 434 kts 187°
2026-04-20 16:00 47.29072 2.04128 31082 ft 425 kts 197°
2026-04-20 16:01 47.23256 2.02610 31054 ft 424 kts 197°
2026-04-20 16:01 47.17443 2.01147 31061 ft 424 kts 197°
2026-04-20 16:02 47.11622 1.99697 31064 ft 424 kts 197°
2026-04-20 16:02 47.05810 1.98253 31053 ft 423 kts 197°
2026-04-20 16:03 47.00005 1.96814 31053 ft 423 kts 197°
2026-04-20 16:03 46.94203 1.95377 31049 ft 423 kts 197°
2026-04-20 16:04 46.88402 1.93942 31045 ft 423 kts 197°
2026-04-20 16:04 46.82602 1.92514 31048 ft 423 kts 197°
2026-04-20 16:05 46.76800 1.91086 31054 ft 423 kts 197°
2026-04-20 16:05 46.70999 1.89661 31042 ft 423 kts 197°
2026-04-20 16:06 46.65204 1.88244 31038 ft 422 kts 197°
2026-04-20 16:06 46.59402 1.86824 31036 ft 423 kts 197°
2026-04-20 16:07 46.53615 1.85412 31030 ft 422 kts 197°
2026-04-20 16:07 46.47818 1.84004 31029 ft 422 kts 197°
2026-04-20 16:08 46.42038 1.82596 31162 ft 419 kts 196°
2026-04-20 16:08 46.39145 1.81892 30987 ft 421 kts 196°
2026-04-20 16:08 46.36255 1.81196 31020 ft 422 kts 196°
2026-04-20 16:09 46.30455 1.79798 31018 ft 422 kts 196°
2026-04-20 16:09 46.24972 1.77358 31025 ft 404 kts 217°
2026-04-20 16:10 46.20657 1.72361 31010 ft 396 kts 227°
2026-04-20 16:10 46.16518 1.67114 31009 ft 396 kts 227°
2026-04-20 16:11 46.12361 1.61880 31009 ft 397 kts 227°
2026-04-20 16:11 46.08226 1.56694 31005 ft 397 kts 227°
2026-04-20 16:12 46.04047 1.51466 30988 ft 397 kts 227°
2026-04-20 16:12 45.99869 1.46247 30980 ft 398 kts 227°
2026-04-20 16:13 45.95753 1.40962 30973 ft 393 kts 233°
2026-04-20 16:13 45.94176 1.37830 30984 ft 385 kts 246°
2026-04-20 16:13 45.92914 1.34438 30977 ft 384 kts 247°
2026-04-20 16:14 45.90479 1.27623 30966 ft 383 kts 248°
2026-04-20 16:14 45.88067 1.20812 30964 ft 383 kts 248°
2026-04-20 16:15 45.85645 1.13995 30965 ft 383 kts 248°
2026-04-20 16:15 45.83222 1.07196 30965 ft 383 kts 248°
2026-04-20 16:16 45.80100 1.00947 30988 ft 396 kts 228°
2026-04-20 16:16 45.75916 0.95774 30968 ft 397 kts 226°
2026-04-20 16:17 45.71687 0.90681 30960 ft 397 kts 226°
2026-04-20 16:17 45.67446 0.85600 30962 ft 398 kts 226°
2026-04-20 16:18 45.63208 0.80529 30946 ft 397 kts 226°
2026-04-20 16:18 45.58961 0.75458 30954 ft 398 kts 226°
2026-04-20 16:19 45.54745 0.70431 30944 ft 397 kts 226°
2026-04-20 16:19 45.50494 0.65375 30945 ft 399 kts 226°
2026-04-20 16:20 45.46230 0.60316 30931 ft 399 kts 226°
2026-04-20 16:20 45.41965 0.55266 30930 ft 399 kts 226°
2026-04-20 16:21 45.37699 0.50222 30927 ft 399 kts 226°
2026-04-20 16:21 45.33424 0.45179 30927 ft 399 kts 226°
2026-04-20 16:22 45.29137 0.40134 30918 ft 400 kts 225°
2026-04-20 16:22 45.24856 0.35106 30922 ft 400 kts 225°
2026-04-20 16:23 45.20566 0.30074 30914 ft 400 kts 225°
2026-04-20 16:23 45.16273 0.25049 30920 ft 400 kts 225°
2026-04-20 16:24 45.11976 0.20034 30920 ft 400 kts 225°
2026-04-20 16:24 45.07680 0.15027 30923 ft 400 kts 225°
2026-04-20 16:25 45.03405 0.10055 30916 ft 400 kts 225°
2026-04-20 16:25 44.99120 0.05138 30920 ft 401 kts 224°
2026-04-20 16:26 44.94793 0.00181 30919 ft 401 kts 224°
2026-04-20 16:26 44.90464 -0.04774 30920 ft 401 kts 224°
2026-04-20 16:27 44.86134 -0.09723 30915 ft 401 kts 224°
2026-04-20 16:27 44.81890 -0.14563 30914 ft 401 kts 224°
2026-04-20 16:28 44.77554 -0.19492 30924 ft 398 kts 224°
2026-04-20 16:28 44.75449 -0.21875 30835 ft 379 kts 224°
2026-04-20 16:28 44.73429 -0.24161 30536 ft 367 kts 224°
2026-04-20 16:29 44.71467 -0.26386 30119 ft 359 kts 224°
2026-04-20 16:29 44.69534 -0.28582 29542 ft 355 kts 224°
2026-04-20 16:29 44.67616 -0.30760 28791 ft 356 kts 224°
2026-04-20 16:29 44.65651 -0.32994 28404 ft 374 kts 224°
2026-04-20 16:30 44.63553 -0.35337 27852 ft 394 kts 221°
2026-04-20 16:30 44.61271 -0.37553 27280 ft 401 kts 218°
2026-04-20 16:30 44.58948 -0.39693 26753 ft 399 kts 218°
2026-04-20 16:30 44.56645 -0.41842 26221 ft 396 kts 218°
2026-04-20 16:31 44.54377 -0.44002 25698 ft 393 kts 219°
2026-04-20 16:31 44.52126 -0.46164 25178 ft 390 kts 219°
2026-04-20 16:31 44.49900 -0.48306 24661 ft 387 kts 219°
2026-04-20 16:31 44.47691 -0.50432 24154 ft 384 kts 218°
2026-04-20 16:32 44.45491 -0.52546 23642 ft 382 kts 218°
2026-04-20 16:32 44.43309 -0.54639 23101 ft 379 kts 218°
2026-04-20 16:32 44.41177 -0.56684 22623 ft 375 kts 218°
2026-04-20 16:32 44.39003 -0.58767 22134 ft 373 kts 218°
2026-04-20 16:33 44.36900 -0.60780 21639 ft 370 kts 218°
2026-04-20 16:33 44.34779 -0.62809 21154 ft 368 kts 218°
2026-04-20 16:33 44.32676 -0.64816 20665 ft 365 kts 218°
2026-04-20 16:33 44.30588 -0.66811 20170 ft 362 kts 218°
2026-04-20 16:34 44.28519 -0.68785 19705 ft 359 kts 218°
2026-04-20 16:34 44.26462 -0.70744 19230 ft 357 kts 218°
2026-04-20 16:34 44.24420 -0.72696 18764 ft 354 kts 218°
2026-04-20 16:34 44.22394 -0.74631 18292 ft 352 kts 218°
2026-04-20 16:35 44.20381 -0.76551 17805 ft 349 kts 218°
2026-04-20 16:35 44.18386 -0.78452 17356 ft 348 kts 218°
2026-04-20 16:35 44.16394 -0.80351 16896 ft 345 kts 218°
2026-04-20 16:35 44.14413 -0.82233 16440 ft 344 kts 218°
2026-04-20 16:36 44.12439 -0.84110 15971 ft 342 kts 217°
2026-04-20 16:36 44.10478 -0.85972 15525 ft 341 kts 217°
2026-04-20 16:36 44.08526 -0.87828 15076 ft 339 kts 217°
2026-04-20 16:36 44.06585 -0.89671 14631 ft 336 kts 217°
2026-04-20 16:37 44.04675 -0.91479 14180 ft 328 kts 217°
2026-04-20 16:37 44.02811 -0.93243 13745 ft 321 kts 217°
2026-04-20 16:37 44.00988 -0.94966 13309 ft 313 kts 217°
2026-04-20 16:37 43.99214 -0.96641 12918 ft 305 kts 217°
2026-04-20 16:38 43.97481 -0.98280 12512 ft 298 kts 217°
2026-04-20 16:38 43.95779 -0.99888 12113 ft 293 kts 217°
2026-04-20 16:38 43.94108 -1.01465 11739 ft 289 kts 217°
2026-04-20 16:38 43.92451 -1.03031 11344 ft 288 kts 217°
2026-04-20 16:39 43.90791 -1.04597 10964 ft 288 kts 217°
2026-04-20 16:39 43.89134 -1.06160 10596 ft 288 kts 217°
2026-04-20 16:39 43.87480 -1.07711 10206 ft 288 kts 217°
2026-04-20 16:39 43.85824 -1.09266 9820 ft 286 kts 217°
2026-04-20 16:40 43.84183 -1.10802 9413 ft 284 kts 217°
2026-04-20 16:40 43.82559 -1.12328 9068 ft 281 kts 216°
2026-04-20 16:40 43.80942 -1.13847 8677 ft 281 kts 216°
2026-04-20 16:40 43.79328 -1.15367 8308 ft 280 kts 216°
2026-04-20 16:41 43.77975 -1.16638 7981 ft 279 kts 216°
2026-04-20 16:41 43.76353 -1.18157 7636 ft 278 kts 216°
2026-04-20 16:41 43.74708 -1.19479 7254 ft 279 kts 202°
2026-04-20 16:41 43.72828 -1.20126 6918 ft 278 kts 192°
2026-04-20 16:42 43.70917 -1.20564 6500 ft 279 kts 191°
2026-04-20 16:42 43.69007 -1.20987 6158 ft 276 kts 191°
2026-04-20 16:42 43.67123 -1.21431 5799 ft 274 kts 191°
2026-04-20 16:42 43.65855 -1.21735 5525 ft 274 kts 191°
2026-04-20 16:43 43.63990 -1.22186 5169 ft 271 kts 191°
2026-04-20 16:43 43.62146 -1.22636 4819 ft 268 kts 191°
2026-04-20 16:43 43.60313 -1.23091 4467 ft 267 kts 191°
2026-04-20 16:43 43.58494 -1.23538 4215 ft 265 kts 190°
2026-04-20 16:44 43.56664 -1.23976 3841 ft 268 kts 189°
2026-04-20 16:44 43.54831 -1.24406 3535 ft 266 kts 189°
2026-04-20 16:44 43.53009 -1.24835 3197 ft 262 kts 188°
2026-04-20 16:44 43.51248 -1.25243 2888 ft 249 kts 188°
2026-04-20 16:45 43.49620 -1.25619 2864 ft 227 kts 188°
2026-04-20 16:45 43.48155 -1.26075 2982 ft 209 kts 206°
2026-04-20 16:45 43.47255 -1.27565 3112 ft 205 kts 256°
2026-04-20 16:45 43.47128 -1.29465 3140 ft 197 kts 264°
2026-04-20 16:46 43.47017 -1.31367 2852 ft 201 kts 272°
2026-04-20 16:46 43.47067 -1.33272 2614 ft 194 kts 269°
2026-04-20 16:46 43.47001 -1.35081 2343 ft 184 kts 266°
2026-04-20 16:46 43.46968 -1.36802 2133 ft 178 kts 270°
2026-04-20 16:47 43.46974 -1.38476 1889 ft 171 kts 270°
2026-04-20 16:47 43.46953 -1.40060 1665 ft 164 kts 268°
2026-04-20 16:47 43.46937 -1.41578 1445 ft 154 kts 270°
2026-04-20 16:47 43.46928 -1.43057 1246 ft 150 kts 270°
2026-04-20 16:48 43.46913 -1.44460 1096 ft 145 kts 270°
2026-04-20 16:48 43.46902 -1.45789 907 ft 133 kts 271°
2026-04-20 16:48 43.46890 -1.47042 732 ft 130 kts 271°
2026-04-20 16:48 43.46877 -1.48265 625 ft 130 kts 270°
2026-04-20 16:49 43.46863 -1.49496 463 ft 127 kts 270°
2026-04-20 16:49 43.46855 -1.50699 300 ft 125 kts 271°
2026-04-20 16:49 43.46847 -1.51848 231 ft 108 kts 269°
2026-04-20 16:49 43.46834 -1.52646 239 ft 60 kts 269°
2026-04-20 16:50 43.46835 -1.53021 250 ft 28 kts 271°
2026-04-20 16:50 43.46867 -1.53143 252 ft 10 kts 336°
2026-04-20 16:50 43.46923 -1.53177 252 ft 7 kts 336°
2026-04-20 16:50 43.46970 -1.53205 252 ft 9 kts 336°
2026-04-20 16:51 43.47011 -1.53195 252 ft 4 kts 32°
2026-04-20 16:51 43.47034 -1.53166 252 ft 5 kts 50°
2026-04-20 16:51 43.47058 -1.53123 251 ft 7 kts 41°
2026-04-20 16:51 43.47098 -1.53119 251 ft 4 kts
2026-04-20 16:52 43.47120 -1.53094 251 ft 5 kts 30°
2026-04-20 16:52 43.47126 -1.53091 250 ft 0 kts 22°